| Date | Temp High/Low | Dew Pt High/Low | Humidity | Wind | Max Wind | Wind Gust | Pressure | Precip. | Condition |
|---|---|---|---|---|---|---|---|---|---|
| 8/31/2021 | 82 °F / 50 °F | 27 °F / 14 °F | 16 % | 23 mph | - | 23.09 in | 0 in | ||
| 8/30/2021 | 86 °F / 39 °F | 30 °F / 18 °F | 23 % | 21 mph | - | 23.18 in | 0 in | ||
| 8/29/2021 | 86 °F / 41 °F | 27 °F / 14 °F | 20 % | 21 mph | - | 23.21 in | 0 in | ||
| 8/28/2021 | 86 °F / 46 °F | 27 °F / 14 °F | 20 % | 23 mph | - | 23.19 in | 0 in | ||
| 8/27/2021 | 88 °F / 39 °F | 23 °F / 16 °F | 19 % | 20 mph | - | 23.16 in | 0 in | ||
| 8/26/2021 | 84 °F / 32 °F | 27 °F / 5 °F | 26 % | 13 mph | - | 23.23 in | 0 in | ||
| 8/25/2021 | 79 °F / 45 °F | 27 °F / 5 °F | 20 % | 28 mph | - | 23.23 in | 0 in | ||
| 8/24/2021 | 81 °F / 36 °F | 32 °F / 14 °F | 29 % | 24 mph | - | 23.17 in | 0 in | ||
| 8/23/2021 | 81 °F / 36 °F | 36 °F / 19 °F | 29 % | 25 mph | - | 23.12 in | 0 in | ||
| 8/22/2021 | 79 °F / 37 °F | 32 °F / 18 °F | 35 % | 13 mph | - | 23.1 in | 0 in | ||
| 8/21/2021 | 79 °F / 41 °F | 34 °F / 23 °F | 37 % | 25 mph | - | 23.05 in | 0 in | ||
| 8/20/2021 | 77 °F / 41 °F | 36 °F / 27 °F | 34 % | 16 mph | - | 23.13 in | 0 in | ||
| 8/19/2021 | 77 °F / 41 °F | 27 °F / 10 °F | 29 % | 14 mph | - | 23.16 in | 0 in | ||
| 8/18/2021 | 75 °F / 50 °F | 37 °F / 21 °F | 31 % | 25 mph | - | 23.08 in | 0 in | ||
| 8/17/2021 | 86 °F / 50 °F | 45 °F / 16 °F | 34 % | 25 mph | - | 23.12 in | 0 in | ||
| 8/16/2021 | 90 °F / 57 °F | 45 °F / 28 °F | 29 % | 23 mph | - | 23.23 in | 0 in | ||
| 8/15/2021 | 91 °F / 59 °F | 39 °F / 30 °F | 24 % | 12 mph | - | 23.34 in | 0 in | ||
| 8/14/2021 | 90 °F / 48 °F | 41 °F / 30 °F | 31 % | 18 mph | - | 23.38 in | 0 in | ||
| 8/13/2021 | 88 °F / 55 °F | 39 °F / 27 °F | 29 % | 20 mph | - | 23.35 in | 0 in | ||
| 8/12/2021 | 90 °F / 50 °F | 37 °F / 18 °F | 29 % | 18 mph | - | 23.3 in | 0 in | ||
| 8/11/2021 | 88 °F / 52 °F | 37 °F / 23 °F | 25 % | 31 mph | - | 23.3 in | 0 in | ||
| 8/10/2021 | 86 °F / 52 °F | 34 °F / 19 °F | 28 % | 14 mph | - | 23.27 in | 0 in | ||
| 8/9/2021 | 86 °F / 45 °F | 36 °F / 27 °F | 33 % | 15 mph | - | 23.22 in | 0 in | ||
| 8/8/2021 | 86 °F / 41 °F | 36 °F / 23 °F | 30 % | 24 mph | - | 23.19 in | 0 in | ||
| 8/7/2021 | 86 °F / 43 °F | 28 °F / 19 °F | 23 % | 21 mph | - | 23.24 in | 0 in | ||
| 8/6/2021 | 84 °F / 34 °F | 30 °F / 5 °F | 23 % | 14 mph | - | 23.25 in | 0 in | ||
| 8/5/2021 | 82 °F / 57 °F | 37 °F / 14 °F | 20 % | 20 mph | - | 23.24 in | 0 in | ||
| 8/4/2021 | 88 °F / 46 °F | 34 °F / 25 °F | 28 % | 22 mph | - | 23.29 in | 0 in | ||
| 8/3/2021 | 88 °F / 46 °F | 39 °F / 28 °F | 26 % | 18 mph | - | 23.34 in | 0 in | ||
| 8/2/2021 | 86 °F / 46 °F | 39 °F / 30 °F | 39 % | 18 mph | - | 23.37 in | 0 in | ||
| 8/1/2021 | 82 °F / 46 °F | 46 °F / 34 °F | 46 % | 21 mph | - | 23.36 in | 0 in |